| time (UTC) | temp C | wind direction | speed KPH | gust KPH | rain 1hr cm | rain 24hr cm | rain mn cm | humidity % | barometer mb |
| 20260505112020 | 10 | 178 | 0.0 | 0.0 | 0.00 | 0.00 | 0.00 | 92 | 1033.6 |
| 20260505111514 | 10 | 178 | 0.0 | 0.0 | 0.00 | 0.00 | 0.00 | 92 | 1033.4 |
| 20260505111011 | 10 | 178 | 0.0 | 0.0 | 0.00 | 0.00 | 0.00 | 92 | 1033.3 |
| 20260505110508 | 10 | 178 | 0.0 | 0.0 | 0.00 | 0.00 | 0.00 | 92 | 1033.4 |
| 20260505101939 | 10 | 178 | 0.0 | 0.0 | 0.00 | 0.00 | 0.00 | 91 | 1032.7 |
| 20260505101432 | 10 | 178 | 0.0 | 0.0 | 0.00 | 0.00 | 0.00 | 91 | 1032.7 |
| 20260505100928 | 10 | 178 | 0.0 | 0.0 | 0.00 | 0.00 | 0.00 | 91 | 1032.8 |
| 20260505100425 | 10 | 178 | 0.0 | 0.0 | 0.00 | 0.00 | 0.00 | 90 | 1032.7 |
| 20260505095921 | 10 | 178 | 0.0 | 0.0 | 0.00 | 0.00 | 0.00 | 90 | 1032.8 |
| 20260505095419 | 10 | 178 | 0.0 | 0.0 | 0.00 | 0.00 | 0.00 | 90 | 1032.6 |
| 20260505094914 | 10 | 178 | 0.0 | 0.0 | 0.00 | 0.00 | 0.00 | 90 | 1032.6 |
| 20260505094412 | 10 | 178 | 0.0 | 0.0 | 0.00 | 0.00 | 0.00 | 89 | 1032.6 |
| 20260505093907 | 10 | 178 | 0.0 | 0.0 | 0.00 | 0.00 | 0.00 | 89 | 1032.4 |
| 20260505093404 | 10 | 178 | 0.0 | 0.0 | 0.00 | 0.00 | 0.00 | 88 | 1032.3 |
| 20260505092902 | 10 | 178 | 0.0 | 0.0 | 0.00 | 0.00 | 0.00 | 88 | 1032.6 |
| 20260505092400 | 10 | 178 | 0.0 | 0.0 | 0.00 | 0.00 | 0.00 | 88 | 1032.4 |
| 20260505091857 | 11 | 178 | 0.0 | 0.0 | 0.00 | 0.00 | 0.00 | 87 | 1032.4 |
| 20260505091355 | 11 | 178 | 0.0 | 0.0 | 0.00 | 0.00 | 0.00 | 87 | 1032.6 |
| 20260505090852 | 11 | 178 | 0.0 | 0.0 | 0.00 | 0.00 | 0.00 | 87 | 1032.5 |
| 20260505090350 | 11 | 178 | 0.0 | 0.0 | 0.00 | 0.00 | 0.00 | 86 | 1032.3 |
| 20260505085847 | 11 | 178 | 0.0 | 0.0 | 0.00 | 0.00 | 0.00 | 86 | 1032.4 |
| 20260505085345 | 11 | 178 | 0.0 | 0.0 | 0.00 | 0.00 | 0.00 | 85 | 1032.2 |
| 20260505084843 | 11 | 178 | 0.0 | 0.0 | 0.00 | 0.00 | 0.00 | 85 | 1032.5 |
| 20260505084341 | 11 | 178 | 0.0 | 0.0 | 0.00 | 0.00 | 0.00 | 84 | 1032.1 |
| 20260505083838 | 11 | 178 | 0.0 | 0.0 | 0.00 | 0.00 | 0.00 | 84 | 1032.3 |
| 20260505083336 | 11 | 178 | 0.0 | 0.0 | 0.00 | 0.00 | 0.00 | 83 | 1032.3 |
| 20260505082832 | 12 | 178 | 0.0 | 0.0 | 0.00 | 0.00 | 0.00 | 83 | 1032.2 |
| 20260505082328 | 12 | 178 | 0.0 | 0.0 | 0.00 | 0.00 | 0.00 | 82 | 1032.3 |
| 20260505081825 | 12 | 178 | 0.0 | 0.0 | 0.00 | 0.00 | 0.00 | 82 | 1032.1 |
| 20260505081321 | 12 | 178 | 0.0 | 0.0 | 0.00 | 0.00 | 0.00 | 81 | 1032.2 |
| 20260505080818 | 12 | 178 | 0.0 | 0.0 | 0.00 | 0.00 | 0.00 | 81 | 1032.1 |
| 20260505080314 | 12 | 178 | 0.0 | 0.0 | 0.00 | 0.00 | 0.00 | 81 | 1032.1 |
| 20260505075810 | 12 | 178 | 0.0 | 0.0 | 0.00 | 0.00 | 0.00 | 81 | 1032.0 |
| 20260505075307 | 12 | 178 | 0.0 | 0.0 | 0.00 | 0.00 | 0.00 | 80 | 1031.9 |
| 20260505074804 | 12 | 178 | 0.0 | 0.0 | 0.00 | 0.00 | 0.00 | 80 | 1032.0 |
| 20260505074301 | 12 | 178 | 0.0 | 0.0 | 0.00 | 0.00 | 0.00 | 80 | 1031.7 |
| 20260505073759 | 12 | 178 | 0.0 | 0.0 | 0.00 | 0.00 | 0.00 | 79 | 1031.9 |
| 20260505073257 | 12 | 178 | 0.0 | 0.0 | 0.00 | 0.00 | 0.00 | 79 | 1032.0 |
| 20260505072753 | 12 | 178 | 0.0 | 0.0 | 0.00 | 0.00 | 0.00 | 79 | 1032.1 |
| 20260505072249 | 12 | 178 | 0.0 | 0.0 | 0.00 | 0.00 | 0.00 | 78 | 1032.1 |
| 20260505071745 | 13 | 178 | 0.0 | 0.0 | 0.00 | 0.00 | 0.00 | 78 | 1032.0 |
| 20260505071242 | 13 | 178 | 0.0 | 0.0 | 0.00 | 0.00 | 0.00 | 77 | 1031.9 |
| 20260505070740 | 13 | 178 | 0.0 | 0.0 | 0.00 | 0.00 | 0.00 | 77 | 1031.9 |
| 20260505070236 | 13 | 178 | 1.6 | 1.6 | 0.00 | 0.00 | 0.00 | 76 | 1031.9 |
| 20260505065731 | 13 | 178 | 0.0 | 0.0 | 0.00 | 0.00 | 0.00 | 75 | 1032.0 |
| 20260505065229 | 13 | 178 | 1.6 | 1.6 | 0.00 | 0.00 | 0.00 | 74 | 1031.9 |
| 20260505064725 | 13 | 179 | 0.0 | 1.6 | 0.00 | 0.00 | 0.00 | 74 | 1032.0 |
| 20260505064223 | 13 | 179 | 0.0 | 0.0 | 0.00 | 0.00 | 0.00 | 73 | 1032.1 |
| 20260505063721 | 14 | 179 | 0.0 | 0.0 | 0.00 | 0.00 | 0.00 | 72 | 1031.9 |
| 20260505063217 | 14 | 179 | 0.0 | 0.0 | 0.00 | 0.00 | 0.00 | 72 | 1031.9 |
| 20260505062713 | 14 | 179 | 0.0 | 0.0 | 0.00 | 0.00 | 0.00 | 72 | 1031.8 |
| 20260505062211 | 14 | 179 | 0.0 | 0.0 | 0.00 | 0.00 | 0.00 | 72 | 1031.7 |
| 20260505061708 | 15 | 179 | 0.0 | 0.0 | 0.00 | 0.00 | 0.00 | 72 | 1031.8 |
| 20260505061206 | 15 | 179 | 0.0 | 0.0 | 0.00 | 0.00 | 0.00 | 71 | 1031.9 |
| 20260505060703 | 15 | 179 | 0.0 | 0.0 | 0.00 | 0.00 | 0.00 | 70 | 1031.7 |
| 20260505060159 | 15 | 179 | 0.0 | 0.0 | 0.00 | 0.00 | 0.00 | 69 | 1031.8 |
| 20260505055655 | 15 | 188 | 0.0 | 0.0 | 0.00 | 0.00 | 0.00 | 69 | 1031.9 |
| 20260505055152 | 15 | 188 | 0.0 | 0.0 | 0.00 | 0.00 | 0.00 | 67 | 1031.8 |
| 20260505054649 | 15 | 200 | 0.0 | 1.6 | 0.00 | 0.00 | 0.00 | 68 | 1032.1 |
| 20260505054147 | 15 | 217 | 0.0 | 1.6 | 0.00 | 0.00 | 0.00 | 68 | 1031.8 |
| 20260505053645 | 15 | 172 | 0.0 | 1.6 | 0.00 | 0.00 | 0.00 | 69 | 1032.0 |
| 20260505053141 | 15 | 162 | 0.0 | 0.0 | 0.00 | 0.00 | 0.00 | 69 | 1032.1 |
| 20260505052638 | 15 | 162 | 0.0 | 0.0 | 0.00 | 0.00 | 0.00 | 68 | 1032.2 |
| 20260505052135 | 15 | 162 | 0.0 | 0.0 | 0.00 | 0.00 | 0.00 | 67 | 1032.1 |
| 20260505051632 | 16 | 162 | 0.0 | 0.0 | 0.00 | 0.00 | 0.00 | 67 | 1032.1 |
| 20260505051130 | 16 | 147 | 0.0 | 1.6 | 0.00 | 0.00 | 0.00 | 66 | 1032.4 |
| 20260505050628 | 16 | 203 | 0.0 | 0.0 | 0.00 | 0.00 | 0.00 | 66 | 1032.4 |
| 20260505050126 | 16 | 203 | 0.0 | 0.0 | 0.00 | 0.00 | 0.00 | 66 | 1032.3 |
| 20260505041555 | 17 | 227 | 4.8 | 4.8 | 0.00 | 0.00 | 0.00 | 61 | 1032.0 |
| 20260505041053 | 17 | 210 | 4.8 | 4.8 | 0.00 | 0.00 | 0.00 | 61 | 1032.1 |
| 20260505040550 | 17 | 218 | 1.6 | 3.2 | 0.00 | 0.00 | 0.00 | 61 | 1032.1 |
| 20260505040047 | 17 | 240 | 4.8 | 9.7 | 0.00 | 0.00 | 0.00 | 60 | 1032.1 |
| 20260505035543 | 17 | 182 | 0.0 | 3.2 | 0.00 | 0.00 | 0.00 | 60 | 1032.0 |
| 20260505035040 | 17 | 215 | 3.2 | 4.8 | 0.00 | 0.00 | 0.00 | 60 | 1032.1 |
| 20260505034536 | 17 | 99 | 1.6 | 1.6 | 0.00 | 0.00 | 0.00 | 61 | 1032.1 |
| 20260505034033 | 17 | 254 | 1.6 | 8.0 | 0.00 | 0.00 | 0.00 | 60 | 1032.0 |
| 20260505033530 | 17 | 189 | 1.6 | 4.8 | 0.00 | 0.00 | 0.00 | 60 | 1032.2 |
| 20260505033028 | 17 | 231 | 3.2 | 11.3 | 0.00 | 0.00 | 0.00 | 60 | 1032.3 |
| 20260505032526 | 18 | 182 | 0.0 | 3.2 | 0.00 | 0.00 | 0.00 | 59 | 1032.2 |
| 20260505032022 | 18 | 196 | 1.6 | 8.0 | 0.00 | 0.00 | 0.00 | 59 | 1032.0 |
| 20260505031520 | 18 | 197 | 1.6 | 8.0 | 0.00 | 0.00 | 0.00 | 59 | 1032.2 |
| 20260505031016 | 18 | 239 | 3.2 | 4.8 | 0.00 | 0.00 | 0.00 | 58 | 1032.1 |
| 20260505030513 | 18 | 192 | 4.8 | 12.9 | 0.00 | 0.00 | 0.00 | 58 | 1032.3 |
| 20260505030009 | 18 | 249 | 4.8 | 9.7 | 0.00 | 0.00 | 0.00 | 58 | 1032.1 |
| 20260505025505 | 18 | 193 | 0.0 | 4.8 | 0.00 | 0.00 | 0.00 | 58 | 1032.0 |
| 20260505025004 | 18 | 250 | 1.6 | 3.2 | 0.00 | 0.00 | 0.00 | 58 | 1032.1 |
| 20260505024500 | 18 | 160 | 0.0 | 1.6 | 0.00 | 0.00 | 0.00 | 57 | 1032.3 |
| 20260505023957 | 18 | 260 | 1.6 | 1.6 | 0.00 | 0.00 | 0.00 | 58 | 1032.3 |
| 20260505023454 | 19 | 164 | 0.0 | 1.6 | 0.00 | 0.00 | 0.00 | 57 | 1032.1 |
| 20260505022952 | 19 | 65 | 3.2 | 14.5 | 0.00 | 0.00 | 0.00 | 57 | 1032.0 |
| 20260505022449 | 19 | 216 | 3.2 | 8.0 | 0.00 | 0.00 | 0.00 | 57 | 1032.1 |
| 20260505021947 | 19 | 258 | 3.2 | 3.2 | 0.00 | 0.00 | 0.00 | 56 | 1032.0 |
| 20260505021443 | 19 | 188 | 4.8 | 8.0 | 0.00 | 0.00 | 0.00 | 56 | 1031.8 |
| 20260505020938 | 19 | 222 | 8.0 | 12.9 | 0.00 | 0.00 | 0.00 | 56 | 1032.0 |
| 20260505020434 | 20 | 237 | 3.2 | 3.2 | 0.00 | 0.00 | 0.00 | 56 | 1032.0 |
| 20260505015931 | 20 | 192 | 1.6 | 8.0 | 0.00 | 0.00 | 0.00 | 56 | 1031.8 |
| 20260505015428 | 20 | 49 | 3.2 | 4.8 | 0.00 | 0.00 | 0.00 | 55 | 1031.9 |
| 20260505014926 | 20 | 11 | 3.2 | 3.2 | 0.00 | 0.00 | 0.00 | 54 | 1032.0 |
| 20260505014422 | 20 | 130 | 1.6 | 4.8 | 0.00 | 0.00 | 0.00 | 53 | 1031.7 |
| 20260505013919 | 20 | 146 | 1.6 | 4.8 | 0.00 | 0.00 | 0.00 | 52 | 1031.9 |
| 20260505013416 | 20 | 162 | 1.6 | 8.0 | 0.00 | 0.00 | 0.00 | 52 | 1031.7 |
| 20260505012914 | 20 | 311 | 6.4 | 9.7 | 0.00 | 0.00 | 0.00 | 50 | 1031.5 |
| 20260505012412 | 20 | 194 | 4.8 | 11.3 | 0.00 | 0.00 | 0.00 | 49 | 1031.4 |
| 20260505011908 | 19 | 5 | 3.2 | 4.8 | 0.00 | 0.00 | 0.00 | 48 | 1031.2 |
| 20260505011405 | 20 | 160 | 0.0 | 1.6 | 0.00 | 0.00 | 0.00 | 50 | 1031.2 |
| 20260505010901 | 20 | 172 | 0.0 | 0.0 | 0.00 | 0.00 | 0.00 | 47 | 1031.1 |
| 20260505010357 | 20 | 171 | 0.0 | 0.0 | 0.00 | 0.00 | 0.00 | 44 | 1031.1 |
| 20260505005853 | 20 | 182 | 1.6 | 3.2 | 0.00 | 0.00 | 0.00 | 45 | 1031.0 |
| 20260505005350 | 20 | 200 | 0.0 | 1.6 | 0.00 | 0.00 | 0.00 | 46 | 1030.9 |
| 20260505004848 | 20 | 199 | 1.6 | 1.6 | 0.00 | 0.00 | 0.00 | 46 | 1030.7 |
| 20260505004344 | 20 | 181 | 0.0 | 0.0 | 0.00 | 0.00 | 0.00 | 46 | 1030.8 |
| 20260505003841 | 20 | 181 | 0.0 | 0.0 | 0.00 | 0.00 | 0.00 | 46 | 1030.9 |
| 20260505003338 | 20 | 181 | 0.0 | 0.0 | 0.00 | 0.00 | 0.00 | 46 | 1030.8 |
| 20260505002834 | 20 | 143 | 0.0 | 0.0 | 0.00 | 0.00 | 0.00 | 45 | 1030.6 |
| 20260505002331 | 20 | 144 | 0.0 | 0.0 | 0.00 | 0.00 | 0.00 | 45 | 1030.8 |
| 20260505001830 | 21 | 144 | 0.0 | 0.0 | 0.00 | 0.00 | 0.00 | 44 | 1030.6 |
| 20260505001326 | 21 | 143 | 0.0 | 1.6 | 0.00 | 0.00 | 0.00 | 44 | 1030.7 |
| 20260505000824 | 21 | 159 | 0.0 | 1.6 | 0.00 | 0.00 | 0.00 | 43 | 1030.5 |
| 20260505000321 | 21 | 158 | 0.0 | 0.0 | 0.00 | 0.00 | 0.00 | 42 | 1030.7 |
| 20260504235818 | 22 | 184 | 1.6 | 1.6 | 0.00 | 0.00 | 0.00 | 41 | 1030.7 |
| 20260504235315 | 22 | 188 | 1.6 | 3.2 | 0.00 | 0.00 | 0.00 | 40 | 1030.6 |
| 20260504234811 | 22 | 195 | 0.0 | 0.0 | 0.00 | 0.00 | 0.00 | 41 | 1030.7 |
| 20260504234309 | 22 | 117 | 1.6 | 1.6 | 0.00 | 0.00 | 0.00 | 38 | 1030.4 |
| 20260504233805 | 22 | 177 | 0.0 | 0.0 | 0.00 | 0.00 | 0.00 | 40 | 1030.4 |
| 20260504233301 | 23 | 169 | 1.6 | 1.6 | 0.00 | 0.00 | 0.00 | 38 | 1030.2 |
| 20260504232758 | 23 | 188 | 1.6 | 1.6 | 0.00 | 0.00 | 0.00 | 37 | 1030.2 |
| 20260504232255 | 23 | 167 | 0.0 | 1.6 | 0.00 | 0.00 | 0.00 | 37 | 1030.3 |
| 20260504231752 | 23 | 193 | 0.0 | 1.6 | 0.00 | 0.00 | 0.00 | 34 | 1030.3 |
| 20260504231248 | 24 | 214 | 4.8 | 4.8 | 0.00 | 0.00 | 0.00 | 34 | 1030.2 |
| 20260504230744 | 24 | 88 | 1.6 | 3.2 | 0.00 | 0.00 | 0.00 | 34 | 1030.2 |
| 20260504230243 | 24 | 181 | 0.0 | 1.6 | 0.00 | 0.00 | 0.00 | 34 | 1030.1 |
| 20260504225741 | 25 | 142 | 1.6 | 3.2 | 0.00 | 0.00 | 0.00 | 34 | 1030.1 |
| 20260504225237 | 25 | 196 | 3.2 | 3.2 | 0.00 | 0.00 | 0.00 | 36 | 1030.0 |
| 20260504224734 | 25 | 192 | 1.6 | 9.7 | 0.00 | 0.00 | 0.00 | 31 | 1030.1 |
| 20260504224232 | 25 | 171 | 0.0 | 1.6 | 0.00 | 0.00 | 0.00 | 35 | 1030.0 |
| 20260504223728 | 26 | 168 | 1.6 | 1.6 | 0.00 | 0.00 | 0.00 | 35 | 1030.1 |
| 20260504223223 | 26 | 160 | 1.6 | 1.6 | 0.00 | 0.00 | 0.00 | 32 | 1030.0 |
| 20260504222721 | 26 | 36 | 1.6 | 3.2 | 0.00 | 0.00 | 0.00 | 32 | 1030.1 |
| 20260504222218 | 26 | 196 | 3.2 | 8.0 | 0.00 | 0.00 | 0.00 | 31 | 1030.1 |
| 20260504221715 | 27 | 227 | 1.6 | 1.6 | 0.00 | 0.00 | 0.00 | 29 | 1029.9 |
| 20260504221212 | 27 | 205 | 1.6 | 8.0 | 0.00 | 0.00 | 0.00 | 27 | 1030.0 |
| 20260504220708 | 27 | 269 | 3.2 | 4.8 | 0.00 | 0.00 | 0.00 | 27 | 1030.1 |
| 20260504220206 | 26 | 187 | 1.6 | 3.2 | 0.00 | 0.00 | 0.00 | 26 | 1030.1 |
| 20260504215702 | 26 | 245 | 6.4 | 11.3 | 0.00 | 0.00 | 0.00 | 26 | 1029.9 |
| 20260504215200 | 27 | 255 | 1.6 | 4.8 | 0.00 | 0.00 | 0.00 | 26 | 1030.0 |
| 20260504214655 | 27 | 212 | 6.4 | 12.9 | 0.00 | 0.00 | 0.00 | 26 | 1030.1 |
| 20260504214152 | 27 | 220 | 4.8 | 4.8 | 0.00 | 0.00 | 0.00 | 26 | 1030.2 |
| 20260504213649 | 27 | 273 | 3.2 | 9.7 | 0.00 | 0.00 | 0.00 | 25 | 1030.2 |
| 20260504213145 | 27 | 199 | 1.6 | 4.8 | 0.00 | 0.00 | 0.00 | 24 | 1030.0 |
| 20260504212642 | 27 | 229 | 4.8 | 8.0 | 0.00 | 0.00 | 0.00 | 26 | 1030.3 |
| 20260504212138 | 27 | 231 | 1.6 | 4.8 | 0.00 | 0.00 | 0.00 | 25 | 1030.2 |
| 20260504211636 | 27 | 267 | 6.4 | 9.7 | 0.00 | 0.00 | 0.00 | 24 | 1030.2 |
| 20260504211132 | 27 | 245 | 4.8 | 4.8 | 0.00 | 0.00 | 0.00 | 24 | 1030.1 |
| 20260504210630 | 27 | 350 | 3.2 | 3.2 | 0.00 | 0.00 | 0.00 | 25 | 1030.2 |
| 20260504210126 | 27 | 206 | 1.6 | 3.2 | 0.00 | 0.00 | 0.00 | 25 | 1030.2 |
| 20260504205624 | 27 | 257 | 1.6 | 3.2 | 0.00 | 0.00 | 0.00 | 25 | 1030.2 |
| 20260504205121 | 27 | 202 | 4.8 | 4.8 | 0.00 | 0.00 | 0.00 | 25 | 1030.4 |
| 20260504204620 | 27 | 211 | 1.6 | 9.7 | 0.00 | 0.00 | 0.00 | 25 | 1030.3 |
| 20260504204118 | 27 | 195 | 6.4 | 9.7 | 0.00 | 0.00 | 0.00 | 23 | 1030.6 |
| 20260504203616 | 27 | 39 | 4.8 | 11.3 | 0.00 | 0.00 | 0.00 | 25 | 1030.6 |
| 20260504203114 | 27 | 238 | 3.2 | 9.7 | 0.00 | 0.00 | 0.00 | 26 | 1030.5 |
| 20260504202609 | 26 | 223 | 3.2 | 3.2 | 0.00 | 0.00 | 0.00 | 26 | 1030.5 |
| 20260504202106 | 26 | 19 | 6.4 | 9.7 | 0.00 | 0.00 | 0.00 | 25 | 1030.6 |
| 20260504201602 | 27 | 232 | 3.2 | 11.3 | 0.00 | 0.00 | 0.00 | 26 | 1030.7 |
| 20260504201100 | 27 | 233 | 3.2 | 4.8 | 0.00 | 0.00 | 0.00 | 27 | 1030.6 |
| 20260504200556 | 27 | 238 | 4.8 | 9.7 | 0.00 | 0.00 | 0.00 | 24 | 1030.8 |
| 20260504200053 | 27 | 31 | 3.2 | 4.8 | 0.00 | 0.00 | 0.00 | 25 | 1031.1 |
| 20260504195550 | 27 | 172 | 1.6 | 9.7 | 0.00 | 0.00 | 0.00 | 25 | 1031.0 |
| 20260504195046 | 26 | 192 | 1.6 | 4.8 | 0.00 | 0.00 | 0.00 | 25 | 1031.0 |
| 20260504194543 | 27 | 354 | 4.8 | 11.3 | 0.00 | 0.00 | 0.00 | 25 | 1031.0 |
| 20260504194038 | 27 | 334 | 4.8 | 4.8 | 0.00 | 0.00 | 0.00 | 28 | 1030.9 |
| 20260504193535 | 26 | 197 | 4.8 | 8.0 | 0.00 | 0.00 | 0.00 | 25 | 1030.6 |
| 20260504193034 | 26 | 342 | 0.0 | 8.0 | 0.00 | 0.00 | 0.00 | 25 | 1031.0 |
| 20260504192532 | 26 | 253 | 4.8 | 8.0 | 0.00 | 0.00 | 0.00 | 27 | 1031.0 |
| 20260504192030 | 26 | 238 | 1.6 | 4.8 | 0.00 | 0.00 | 0.00 | 28 | 1031.0 |
| 20260504191527 | 26 | 229 | 6.4 | 9.7 | 0.00 | 0.00 | 0.00 | 28 | 1031.3 |
| 20260504191023 | 26 | 256 | 8.0 | 11.3 | 0.00 | 0.00 | 0.00 | 27 | 1031.2 |
| 20260504190519 | 26 | 240 | 3.2 | 9.7 | 0.00 | 0.00 | 0.00 | 26 | 1031.5 |
| 20260504190015 | 26 | 215 | 1.6 | 4.8 | 0.00 | 0.00 | 0.00 | 29 | 1031.4 |
| 20260504185513 | 26 | 236 | 3.2 | 11.3 | 0.00 | 0.00 | 0.00 | 27 | 1031.6 |
| 20260504185009 | 25 | 226 | 4.8 | 11.3 | 0.00 | 0.00 | 0.00 | 29 | 1031.4 |
| 20260504184504 | 25 | 263 | 3.2 | 3.2 | 0.00 | 0.00 | 0.00 | 31 | 1031.5 |
| 20260504184000 | 25 | 186 | 1.6 | 11.3 | 0.00 | 0.00 | 0.00 | 29 | 1031.3 |
| 20260504183457 | 25 | 230 | 6.4 | 9.7 | 0.00 | 0.00 | 0.00 | 29 | 1031.3 |
| 20260504182955 | 25 | 220 | 6.4 | 20.9 | 0.00 | 0.00 | 0.00 | 29 | 1031.6 |
| 20260504182452 | 25 | 222 | 4.8 | 8.0 | 0.00 | 0.00 | 0.00 | 26 | 1031.6 |
| 20260504181949 | 25 | 228 | 4.8 | 9.7 | 0.00 | 0.00 | 0.00 | 31 | 1031.7 |
| 20260504181446 | 25 | 269 | 4.8 | 16.1 | 0.00 | 0.00 | 0.00 | 30 | 1031.5 |
| 20260504180945 | 25 | 173 | 3.2 | 8.0 | 0.00 | 0.00 | 0.00 | 29 | 1031.5 |
| 20260504180443 | 24 | 232 | 4.8 | 11.3 | 0.00 | 0.00 | 0.00 | 31 | 1031.6 |
| 20260504175941 | 24 | 224 | 3.2 | 11.3 | 0.00 | 0.00 | 0.00 | 31 | 1031.9 |
| 20260504175438 | 25 | 250 | 3.2 | 8.0 | 0.00 | 0.00 | 0.00 | 30 | 1031.8 |
| 20260504174936 | 24 | 203 | 3.2 | 4.8 | 0.00 | 0.00 | 0.00 | 31 | 1031.8 |
| 20260504174433 | 24 | 219 | 4.8 | 14.5 | 0.00 | 0.00 | 0.00 | 31 | 1032.0 |
| 20260504173930 | 25 | 225 | 6.4 | 9.7 | 0.00 | 0.00 | 0.00 | 30 | 1032.2 |
| 20260504173426 | 24 | 236 | 3.2 | 3.2 | 0.00 | 0.00 | 0.00 | 33 | 1032.0 |
| 20260504172924 | 23 | 188 | 1.6 | 3.2 | 0.00 | 0.00 | 0.00 | 33 | 1032.1 |
| 20260504172420 | 23 | 232 | 8.0 | 9.7 | 0.00 | 0.00 | 0.00 | 34 | 1032.3 |
| 20260504171916 | 24 | 251 | 6.4 | 11.3 | 0.00 | 0.00 | 0.00 | 32 | 1032.5 |
| 20260504171414 | 24 | 209 | 4.8 | 14.5 | 0.00 | 0.00 | 0.00 | 31 | 1032.4 |
| 20260504170911 | 23 | 220 | 1.6 | 8.0 | 0.00 | 0.00 | 0.00 | 34 | 1032.2 |
| 20260504170407 | 23 | 235 | 4.8 | 8.0 | 0.00 | 0.00 | 0.00 | 33 | 1032.5 |
| 20260504160326 | 22 | 160 | 1.6 | 4.8 | 0.00 | 0.00 | 0.00 | 42 | 1033.0 |
| 20260504150751 | 20 | 217 | 3.2 | 3.2 | 0.00 | 0.00 | 0.00 | 50 | 1033.2 |
| 20260504150247 | 20 | 222 | 4.8 | 4.8 | 0.00 | 0.00 | 0.00 | 48 | 1033.1 |
| 20260504141217 | 17 | 210 | 8.0 | 9.7 | 0.00 | 0.00 | 0.00 | 54 | 1033.6 |
| 20260504140714 | 17 | 249 | 3.2 | 4.8 | 0.00 | 0.00 | 0.00 | 55 | 1033.3 |
| 20260504140209 | 17 | 199 | 1.6 | 8.0 | 0.00 | 0.00 | 0.00 | 57 | 1033.3 |
| 20260504130638 | 14 | 218 | 0.0 | 1.6 | 0.00 | 0.00 | 0.00 | 75 | 1033.6 |
| 20260504130134 | 13 | 219 | 3.2 | 3.2 | 0.00 | 0.00 | 0.00 | 77 | 1033.6 |